Regional Weather Roundup
Issued by NWS

Home | Current Version | Previous Version | Text Only | Print | Product List | Glossary Off
Versions: 1 2 3 4 5 6 7 8 9 10 11 12 13 14 15 16 17 18 19 20 21 22 23 24 25 26 27 28 29 30 31 32 33 34 35 36 37 38 39 40 41 42 43 44 45 46 47 48 49 50

000
ASUS45 KSLC 271610
RWRUT

UTAH REGIONAL WEATHER ROUNDUP
NATIONAL WEATHER SERVICE SALT LAKE CITY UT
900 AM MST THU NOV 27 2014

UTZ001>011-023>025-271700-

NORTHERN UTAH

CITY           SKY/WX    TMP DP  RH WIND       PRES   REMARKS
BRIGHAM CITY   CLOUDY    41  31  67 CALM      30.31R
HILL AFB       CLOUDY    44  26  48 E8        30.30R
LOGAN          SUNNY     40  30  67 CALM      30.28R
OGDEN          CLOUDY    42  27  55 SE8       30.29S
PROVO AIRPORT  CLOUDY    36  30  80 CALM      30.36S
SALT LAKE CITY CLOUDY    48  24  39 SE14      30.28S
VERNAL         CLOUDY    33  24  69 W3        30.41S
WENDOVER       CLOUDY    36  27  69 CALM      30.29S
HEBER CITY     PTSUNNY   30  27  86 CALM      30.38F
WEST JORDAN    SUNNY     48  28  46 S16       30.31R

$$

UTZ012>022-026-027-271700-

SOUTHERN/CENTRAL UTAH

CITY           SKY/WX    TMP DP  RH WIND       PRES   REMARKS
BLANDING       SUNNY     39  22  51 CALM      30.56S
BRYCE CANYON   PTSUNNY   34  12  40 W5        30.51R WCI  30
CEDAR CITY     PTSUNNY   32  21  64 SW3       30.40R
DELTA          CLOUDY    35  28  76 NE5       30.37R WCI  31
MILFORD        PTSUNNY   34  20  56 S10       30.37  WCI  26
MOAB/CYNLANDS  SUNNY     40  24  53 SE8       30.45S WCI  34
PRICE          MOSUNNY   39  25  57 CALM      30.45R
ST GEORGE      PTSUNNY   37  16  41 CALM      30.42S
KANAB          MOSUNNY   39  18  41 N5        30.46F

$$

REGIONAL REPORTS     COLORADO/ARIZONA

CITY           SKY/WX    TMP DP  RH WIND       PRES   REMARKS
CRAIG, CO      PTSUNNY   31  27  85 SW5       30.40S WCI  26
GRAND JUNCTION SUNNY     34  26  72 CALM      30.47F
RIFLE          MOSUNNY   27  24  89 CALM      30.50F
MONTROSE       MOSUNNY   34  25  69 SE3       30.52S
CORTEZ         SUNNY     34  23  64 NE6       30.50R WCI  29
PAGE, AZ       MOSUNNY   42  17  36 CALM      30.46R
GRAND CANYON   SUNNY     49  16  26 E6        30.47S
KINGMAN        SUNNY     54  17  23 CALM      30.32S
FLAGSTAFF      SUNNY     44  19  36 NE3       30.50R

$$

REGIONAL REPORTS    NEVADA/IDAHO/WYOMING

CITY           SKY/WX    TMP DP  RH WIND       PRES   REMARKS
LAS VEGAS, NV  PTSUNNY   51  21  30 S8        30.27S
ELY            CLOUDY    35  17  47 CALM      30.39F
ELKO           CLOUDY    33  29  85 CALM      30.30F
POCATELLO, ID  SUNNY     50  27  40 SW14      30.23R
BURLEY         CLOUDY    48  30  49 S9        30.21S
EVANSTON, WY   MOSUNNY   40  20  44 SW15      30.34R WCI  32
ROCK SPRINGS   CLOUDY    37  19  48 NW6       30.32R WCI  32

$$


USA.gov is the U.S. government's official web portal to all federal, state and local government web resources and services.